Location: Tuolumne
(37.9608°N, 120.2374°W)
Time: 00:05:17
(UTC+00:00)

Cosmos 1300 - Pass Details

Date: 03 August 2024
Orbit: 455 x 456 km, 82.5° (Epoch: 10 September)

Event Time Altitude Azimuth Distance (km) Brightness Sun altitude
Exits shadow 12:28:34 - 218° (SW) 1,786 4.9 -7.5°
Reaches altitude 10° 12:29:00 10° 221° (SW) 1,624 4.6 -7.5°
Maximum altitude 12:32:06 28° 282° (WNW) 913 3.6 -6.9°
Drops below altitude 10° 12:35:14 10° 343° (NNW) 1,638 5.4 -6.4°
Sets 12:37:32 0° 356° (N) 2,520 6.5 -6.0°
